GW5156 Weather Reports


time (UTC)temp
F
wind
direction
speed
knots
gust
knots
rain 1hr
in
rain 24hr
in
rain mn
in
humidity
%
barometer
mb
20260504120155 60 293 1.7 2.6 0.00 0.00 0.00 59 1017.0
20260504110700 54 257 0.9 1.7 0.00 0.00 0.00 70 1017.0
20260504110200 53 249 0.9 1.7 0.00 0.00 0.00 72 1016.0
20260504100157 49 289 0.9 3.5 0.00 0.00 0.00 84 1016.0
20260504081657 47 101 0.0 0.9 0.00 0.00 0.00 86 1016.0
20260504081157 48 288 0.9 1.7 0.00 0.00 0.00 86 1016.0
20260504080657 48 259 0.9 1.7 0.00 0.00 0.00 86 1016.0
20260504080200 48 274 0.9 1.7 0.00 0.00 0.00 85 1016.0
20260504070156 49 78 0.9 1.7 0.00 0.00 0.00 82 1017.0
20260504060157 50 32 0.0 0.9 0.00 0.00 0.00 78 1017.0
20260504050655 51 41 0.9 2.6 0.00 0.00 0.00 75 1018.0
20260504050158 51 41 2.6 3.5 0.00 0.00 0.00 75 1018.0
20260504045656 51 25 0.0 1.7 0.00 0.00 0.00 75 1018.0
20260504045155 51 51 0.0 1.7 0.00 0.00 0.00 74 1018.0
20260504044656 52 66 0.9 1.7 0.00 0.00 0.00 74 1018.0
20260504044156 52 142 0.9 1.7 0.00 0.00 0.00 73 1018.0
20260504043656 52 36 0.0 1.7 0.00 0.00 0.00 72 1018.0
20260504043156 53 90 0.9 1.7 0.00 0.00 0.00 72 1018.0
20260504042655 53 350 0.0 0.9 0.00 0.00 0.00 71 1018.0
20260504042155 53 35 0.9 1.7 0.00 0.00 0.00 70 1017.0
20260504041657 53 359 0.9 1.7 0.00 0.00 0.00 70 1017.0
20260504041156 53 346 1.7 1.7 0.00 0.00 0.00 70 1017.0
20260504040655 52 18 0.9 1.7 0.00 0.00 0.00 71 1017.0
20260504040155 52 349 0.9 1.7 0.00 0.00 0.00 71 1017.0
20260504035655 51 20 1.7 2.6 0.00 0.00 0.00 73 1017.0
20260504035156 51 27 1.7 3.5 0.00 0.00 0.00 74 1018.0
20260504034655 51 24 1.7 3.5 0.00 0.00 0.00 73 1018.0
20260504034155 51 351 0.9 3.5 0.00 0.00 0.00 73 1018.0
20260504033657 51 28 1.7 2.6 0.00 0.00 0.00 73 1018.0
20260504033155 51 30 0.9 1.7 0.00 0.00 0.00 72 1018.0
20260504032656 51 42 1.7 2.6 0.00 0.00 0.00 72 1018.0
20260504032157 51 26 1.7 2.6 0.00 0.00 0.00 72 1018.0
20260504031655 51 23 0.9 1.7 0.00 0.00 0.00 71 1018.0
20260504031158 51 41 0.9 1.7 0.00 0.00 0.00 71 1018.0
20260504030655 52 67 0.0 1.7 0.00 0.00 0.00 71 1018.0
20260504030155 52 0 1.7 1.7 0.00 0.00 0.00 70 1018.0
20260504025655 52 44 0.0 1.7 0.00 0.00 0.00 69 1018.0
20260504025157 52 59 0.0 0.9 0.00 0.00 0.00 69 1018.0
20260504024655 53 38 0.0 0.9 0.00 0.00 0.00 68 1018.0
20260504024157 53 45 0.0 0.9 0.00 0.00 0.00 67 1018.0
20260504023215 53 81 0.0 0.0 0.00 0.00 0.00 67 1018.0
20260504022655 53 334 0.0 0.9 0.00 0.00 0.00 66 1018.0
20260504022157 54 350 0.0 0.9 0.00 0.00 0.00 66 1018.0
20260504021655 54 328 0.0 0.0 0.00 0.00 0.00 65 1018.0
20260504021155 54 281 0.0 0.9 0.00 0.00 0.00 65 1018.0
20260504020655 54 31 0.0 0.0 0.00 0.00 0.00 65 1018.0
20260504020156 55 28 0.0 0.9 0.00 0.00 0.00 65 1018.0
20260504015655 55 333 0.0 0.9 0.00 0.00 0.00 64 1018.0
20260504015155 55 21 0.9 0.9 0.00 0.00 0.00 65 1018.0
20260504014656 55 44 0.0 0.9 0.00 0.00 0.00 64 1018.0
20260504014155 55 350 0.9 0.9 0.00 0.00 0.00 64 1018.0
20260504013655 55 338 0.9 0.9 0.00 0.00 0.00 63 1017.0
20260504013156 56 31 0.0 0.9 0.00 0.00 0.00 62 1017.0
20260504012655 56 26 0.0 0.0 0.00 0.00 0.00 62 1017.0
20260504012155 56 23 0.9 0.9 0.00 0.00 0.00 62 1017.0
20260504011655 56 20 0.0 0.9 0.00 0.00 0.00 61 1017.0
20260504011155 56 9 0.0 0.9 0.00 0.00 0.00 61 1017.0
20260504010655 57 18 0.9 1.7 0.00 0.00 0.00 60 1017.0
20260504010156 57 69 0.0 0.9 0.00 0.00 0.00 60 1017.0
20260504005655 58 13 0.0 0.9 0.00 0.00 0.00 59 1017.0
20260504005155 58 0 0.9 1.7 0.00 0.00 0.00 59 1017.0
20260504004656 59 40 0.0 0.9 0.00 0.00 0.00 57 1017.0
20260504004155 59 20 0.9 1.7 0.00 0.00 0.00 55 1017.0
20260504003656 60 58 0.9 1.7 0.00 0.00 0.00 55 1017.0
20260504003155 60 48 0.0 0.9 0.00 0.00 0.00 53 1017.0
20260504002656 61 8 0.0 0.9 0.00 0.00 0.00 51 1017.0
20260504002156 61 311 0.0 0.9 0.00 0.00 0.00 50 1017.0
20260504001655 62 312 0.9 0.9 0.00 0.00 0.00 50 1017.0
20260504001155 63 63 0.9 1.7 0.00 0.00 0.00 48 1017.0
20260504000656 64 335 1.7 2.6 0.00 0.00 0.00 45 1017.0
20260504000156 65 330 1.7 1.7 0.00 0.00 0.00 43 1017.0
20260503235656 65 335 0.9 2.6 0.00 0.00 0.00 42 1017.0
20260503235155 65 230 2.6 3.5 0.00 0.00 0.00 40 1017.0
20260503234655 65 325 0.9 1.7 0.00 0.00 0.00 40 1017.0
20260503234157 66 213 1.7 2.6 0.00 0.00 0.00 40 1017.0
20260503233655 66 332 0.9 1.7 0.00 0.00 0.00 40 1017.0
20260503233155 66 249 1.7 2.6 0.00 0.00 0.00 40 1017.0
20260503232655 67 31 1.7 2.6 0.00 0.00 0.00 41 1017.0
20260503232155 67 272 0.0 0.9 0.00 0.00 0.00 41 1017.0
20260503231655 67 202 1.7 2.6 0.00 0.00 0.00 39 1017.0
20260503231155 67 228 3.5 7.0 0.00 0.00 0.00 39 1017.0
20260503230655 68 261 2.6 4.3 0.00 0.00 0.00 39 1017.0
20260503230156 68 304 1.7 3.5 0.00 0.00 0.00 38 1018.0
20260503225655 68 223 0.9 1.7 0.00 0.00 0.00 40 1018.0
20260503225156 68 258 4.3 6.1 0.00 0.00 0.00 38 1018.0
20260503224655 69 286 0.9 3.5 0.00 0.00 0.00 38 1018.0
20260503224156 68 284 1.7 2.6 0.00 0.00 0.00 38 1018.0
20260503223656 68 252 3.5 4.3 0.00 0.00 0.00 37 1018.0
20260503223155 68 273 4.3 5.2 0.00 0.00 0.00 37 1018.0
20260503222655 68 293 1.7 3.5 0.00 0.00 0.00 38 1018.0
20260503222155 68 253 4.3 5.2 0.00 0.00 0.00 38 1018.0
20260503221655 68 246 3.5 6.1 0.00 0.00 0.00 38 1018.0
20260503221157 69 251 2.6 5.2 0.00 0.00 0.00 37 1018.0
20260503220655 69 249 4.3 7.0 0.00 0.00 0.00 36 1018.0
20260503220155 69 267 1.7 3.5 0.00 0.00 0.00 37 1018.0
20260503215655 69 237 1.7 6.1 0.00 0.00 0.00 36 1018.0
20260503215155 69 298 1.7 3.5 0.00 0.00 0.00 38 1018.0
20260503214655 69 342 2.6 5.2 0.00 0.00 0.00 37 1018.0
20260503214155 68 326 2.6 5.2 0.00 0.00 0.00 38 1018.0
20260503213655 69 249 4.3 7.8 0.00 0.00 0.00 37 1018.0
20260503213156 69 330 5.2 7.8 0.00 0.00 0.00 37 1018.0
20260503212655 68 252 4.3 7.0 0.00 0.00 0.00 37 1018.0
20260503212155 69 277 4.3 7.0 0.00 0.00 0.00 36 1018.0
20260503211656 69 239 3.5 5.2 0.00 0.00 0.00 36 1018.0
20260503211155 69 272 3.5 6.1 0.00 0.00 0.00 35 1018.0
20260503210656 69 197 1.7 3.5 0.00 0.00 0.00 36 1018.0
20260503210155 68 275 5.2 7.0 0.00 0.00 0.00 37 1018.0
20260503205655 68 267 1.7 2.6 0.00 0.00 0.00 37 1018.0
20260503205155 68 205 2.6 5.2 0.00 0.00 0.00 38 1018.0
20260503204655 68 238 2.6 4.3 0.00 0.00 0.00 39 1019.0
20260503204155 67 198 1.7 3.5 0.00 0.00 0.00 38 1019.0
20260503203655 67 276 6.1 10.4 0.00 0.00 0.00 38 1019.0
20260503203155 67 327 4.3 5.2 0.00 0.00 0.00 39 1019.0
20260503202655 67 248 4.3 5.2 0.00 0.00 0.00 38 1019.0
20260503202155 67 200 2.6 4.3 0.00 0.00 0.00 39 1019.0
20260503201656 67 261 3.5 5.2 0.00 0.00 0.00 40 1019.0
20260503201155 67 233 3.5 7.0 0.00 0.00 0.00 40 1019.0
20260503200656 67 211 4.3 7.0 0.00 0.00 0.00 39 1019.0
20260503200157 67 245 4.3 6.1 0.00 0.00 0.00 42 1019.0
20260503195655 67 257 3.5 7.0 0.00 0.00 0.00 42 1019.0
20260503195155 67 335 2.6 6.1 0.00 0.00 0.00 42 1020.0
20260503194655 67 219 3.5 5.2 0.00 0.00 0.00 43 1020.0
20260503194155 67 229 4.3 7.0 0.00 0.00 0.00 43 1020.0
20260503193656 66 72 3.5 6.1 0.00 0.00 0.00 43 1020.0
20260503193155 67 197 6.1 9.6 0.00 0.00 0.00 43 1020.0
20260503192655 67 269 3.5 5.2 0.00 0.00 0.00 43 1020.0
20260503192156 67 318 2.6 4.3 0.00 0.00 0.00 42 1020.0
20260503191655 67 248 2.6 4.3 0.00 0.00 0.00 43 1020.0
20260503191156 67 327 1.7 5.2 0.00 0.00 0.00 43 1020.0
20260503190655 67 296 1.7 3.5 0.00 0.00 0.00 42 1020.0
20260503190155 67 204 3.5 6.1 0.00 0.00 0.00 44 1020.0
20260503185656 66 297 3.5 5.2 0.00 0.00 0.00 43 1020.0
20260503185156 66 306 1.7 3.5 0.00 0.00 0.00 44 1020.0
20260503184655 66 219 5.2 7.8 0.00 0.00 0.00 45 1021.0
20260503184156 66 169 5.2 9.6 0.00 0.00 0.00 44 1021.0
20260503183655 66 342 3.5 5.2 0.00 0.00 0.00 43 1021.0
20260503183156 65 222 1.7 4.3 0.00 0.00 0.00 43 1021.0
20260503182655 66 237 2.6 4.3 0.00 0.00 0.00 43 1021.0
20260503182158 66 159 1.7 3.5 0.00 0.00 0.00 41 1021.0
20260503181655 65 19 4.3 7.0 0.00 0.00 0.00 42 1021.0
20260503181155 66 358 2.6 4.3 0.00 0.00 0.00 41 1021.0
20260503180655 65 255 3.5 6.1 0.00 0.00 0.00 43 1021.0
20260503180157 65 221 1.7 3.5 0.00 0.00 0.00 43 1021.0
20260503175655 65 249 3.5 5.2 0.00 0.00 0.00 42 1021.0
20260503175155 65 343 0.9 1.7 0.00 0.00 0.00 42 1021.0
20260503174655 64 248 3.5 6.1 0.00 0.00 0.00 44 1021.0
20260503174155 63 249 1.7 3.5 0.00 0.00 0.00 43 1021.0
20260503173655 63 74 3.5 4.3 0.00 0.00 0.00 45 1021.0
20260503173155 64 136 5.2 7.0 0.00 0.00 0.00 44 1021.0
20260503172656 64 226 3.5 7.0 0.00 0.00 0.00 45 1021.0
20260503172157 63 315 1.7 3.5 0.00 0.00 0.00 45 1021.0
20260503171656 63 131 3.5 6.1 0.00 0.00 0.00 46 1021.0
20260503171155 63 202 2.6 4.3 0.00 0.00 0.00 45 1022.0
20260503170656 62 324 2.6 5.2 0.00 0.00 0.00 45 1022.0
20260503170156 63 168 1.7 3.5 0.00 0.00 0.00 41 1022.0
20260503160156 60 205 2.6 4.3 0.00 0.00 0.00 48 1022.0
20260503150656 58 24 1.7 3.5 0.00 0.00 0.00 56 1022.0
20260503150157 58 138 3.5 7.0 0.00 0.00 0.00 58 1022.0
20260503140158 55 117 3.5 3.5 0.00 0.00 0.00 67 1022.0
20260503131155 52 23 4.3 5.2 0.00 0.00 0.00 77 1022.0
20260503130655 52 0 3.5 4.3 0.00 0.00 0.00 77 1022.0
20260503130157 52 37 1.7 5.2 0.00 0.00 0.00 79 1022.0